Simultaneous Nadir Overpasses (SNOs) Predictions

Prediction of SNOs over PacNW region [( 10.00, 139.50) to ( 22.70, 165.60)] between NOAA-19 and NPP Satellites:

Table of predicted SNOs over PacNW region for the next 30.0 days since TLE Epoch: 10/28/2013
Index Date (NOAA-19) Time (NOAA-19) NOAA-19 Lat,Lon Date (NPP) Time (NPP) NPP Lat,Lon Distance(km) Time Diff (sec)
1 10/30/2013 02:55:19 20.45, 158.44 10/30/2013 02:55:57 19.54, 154.43 430.97 38
2 10/30/2013 15:31:53 10.51, 154.30 10/30/2013 15:28:24 11.19, 151.18 348.94 209
3 11/11/2013 14:58:21 22.60, 164.84 11/11/2013 14:59:32 23.57, 160.54 453.08 71
4 11/12/2013 03:56:54 22.69, 142.74 11/12/2013 03:53:47 22.03, 139.58 332.69 187
5 11/24/2013 03:25:09 17.16, 151.75 11/24/2013 03:26:43 16.17, 147.41 475.68 94
6 11/24/2013 16:01:54 13.50, 147.48 11/24/2013 15:59:16 14.23, 144.05 378.93 158
